Regional Weather Roundup
Issued by NWS

Home | Current Version | Previous Version | Graphics & Text | Print | Product List | Glossary On
Versions: 1 2 3 4 5 6 7 8 9 10 11 12 13 14 15 16 17 18 19 20 21 22 23 24 25 26 27 28 29 30 31 32 33 34 35 36 37 38 39 40 41 42 43 44 45 46 47 48 49 50
181
ASUS43 KLOT 290002
RWRIL

ILLINOIS REGIONAL WEATHER ROUNDUP
NATIONAL WEATHER SERVICE CHICAGO/ROMEOVILLE IL
700 PM CDT TUE MAR 28 2017

NOTE: "FAIR" INDICATES FEW OR NO CLOUDS BELOW 12,000 FEET WITH NO
SIGNIFICANT WEATHER AND/OR OBSTRUCTIONS TO VISIBILITY.

* THESE STATIONS ARE NOT UNDER NWS QUALITY CONTROL. THEY ALSO MAY NOT
  REPORT WEATHER SUCH AS PRECIPITATION OR FOG.

ILZ001-002-007-009-015-016-024-290100-
NORTHWEST ILLINOIS

CITY           SKY/WX    TMP DP  RH WIND       PRES   REMARKS
MOLINE         CLOUDY    50  40  68 E14       30.14R
6HR MIN TEMP:  50; 6HR MAX TEMP:  53;

STERLING*      CLEAR     48  41  76 NE3       30.16R
SAVANNA*       CLEAR     49  40  71 E3        30.16S
$$

ILZ003-004-008-010-011-017-018-290100-
NORTH CENTRAL ILLINOIS

CITY           SKY/WX    TMP DP  RH WIND       PRES   REMARKS
ROCKFORD       PTCLDY    53  39  59 SE8       30.16R
6HR MIN TEMP:  48; 6HR MAX TEMP:  57;

FREEPORT*      CLEAR     50  40  67 CALM      30.16S
ROCHELLE*      PTCLDY    49  42  76 E3        30.16R
DE KALB*       CLEAR     48  38  68 NE10      30.16R
$$

ILZ005-006-012>014-019>023-290100-
NORTHEAST ILLINOIS

CITY           SKY/WX    TMP DP  RH WIND       PRES   REMARKS
CHICAGO-OHARE  MOCLDY    43  36  76 NE7       30.17R
6HR MIN TEMP:  43; 6HR MAX TEMP:  50;

CHICAGO-MIDWAY MOCLDY    43  37  79 NE9       30.17R
6HR MIN TEMP:  43; 6HR MAX TEMP:  47;

AURORA         CLEAR     48  39  71 NE12      30.15S
6HR MIN TEMP:  46; 6HR MAX TEMP:  52;

LANSING*       CLOUDY    40  38  95 NE6       30.18R
JOLIET*        CLEAR     48  39  72 NE8       30.16R
WAUKEGAN       FOG       35  35 100 NE7       30.17S VSB<1/4 WCI  29
6HR MIN TEMP:  35; 6HR MAX TEMP:  44;

DUPAGE AIRPORT CLEAR     45  36  70 NE12      30.16R
6HR MIN TEMP:  45; 6HR MAX TEMP:  52;

WHEELING       CLEAR     39  37  92 NE7       30.19R WCI  34
6HR MIN TEMP:  39; 6HR MAX TEMP:  47;

MORRIS*        PTCLDY    47  40  75 CALM      30.14S
NORTHERLY ISL    N/A     38  36  92 N8          N/A  WCI  32
$$

LMZ740>746-290100-
SOUTHERN LAKE MICHIGAN

STATION/POSITION SKY/WX   TEMP    WIND        PRES    VSBY  WAVE
                          AIR SEA DIR/SP/G                  HT/PER
                          (F)     (DEG/KT/KT) (MB)    (MI)  (FT/S)
HARRISON CRIB              37     350/ 11/ 12   N/A
BURNHAM HARBOR             38      10/  7/ 12   N/A
CALUMET HARBOR             38     340/  9/ 14 1021.4R
BURNS HARBOR               39      30/  6/  7 1022.4R
MICHIGAN CITY              38      20/  7/  7   N/A
$$

ILZ025>027-034>036-040-047-049-050-058-095>099-290100-
WEST-CENTRAL ILLINOIS

CITY           SKY/WX    TMP DP  RH WIND       PRES   REMARKS
QUINCY         CLOUDY    52  48  86 E9        30.08F
GALESBURG*     CLOUDY    49  43  80 NE8       30.14R
MACOMB*        CLOUDY    51  46  86 E8        30.14S
JACKSONVILLE*  CLOUDY    52  47  81 NE9       30.11S
PITTSFIELD*    CLOUDY    54  48  80 NE7       30.10F
$$

ILZ028>032-037-038-041>044-048-051>054-059>061-290100-
CENTRAL ILLINOIS

CITY           SKY/WX    TMP DP  RH WIND       PRES   REMARKS
PONTIAC        CLOUDY    47  44  87 NE6       30.16R
BLOOMINGTON    CLOUDY    47  42  83 NE14      30.15R
DECATUR        CLOUDY    53  44  71 N13       30.11R
PEORIA         CLOUDY    50  43  77 NE8       30.14R
6HR MIN TEMP:  50; 6HR MAX TEMP:  54;

SPRINGFIELD    CLOUDY    54  46  74 NE8       30.12R
6HR MIN TEMP:  54; 6HR MAX TEMP:  57;

TAYLORVILLE    NOT AVBL
$$

ILZ033-039-045-046-055>057-062-063-290100-
EAST-CENTRAL ILLINOIS

CITY           SKY/WX    TMP DP  RH WIND       PRES   REMARKS
CHAMPAIGN      CLOUDY    50  41  71 NE12      30.13R
RANTOUL*       CLOUDY    49  42  77 NE15      30.14R
MATTOON        CLOUDY    55  46  71 NE12      30.10R
PARIS*         CLOUDY    52  45  78 N8        30.12R
$$

ILZ079-100>102-290100-
SOUTHWEST ILLINOIS

CITY           SKY/WX    TMP DP  RH WIND       PRES   REMARKS
ALTON          CLOUDY    55  48  76 NE6       30.09R
BELLEVILLE     CLOUDY    57  49  75 N5        30.07R
CAHOKIA*       CLOUDY    57  47  69 NE6       30.08R
SPARTA*        CLOUDY    55  48  79 NE6       30.08S
$$

ILZ064>066-069>071-074>076-080>082-084>086-088>090-092>094-290100-
SOUTH-CENTRAL ILLINOIS

CITY           SKY/WX    TMP DP  RH WIND       PRES   REMARKS
CARBONDALE     CLOUDY    57  51  80 N6        30.07R
6HR MIN TEMP:  56; 6HR MAX TEMP:  59;

CAIRO*         CLOUDY    58  51  78 NE6       30.04S
EFFINGHAM*     CLOUDY    57  48  73 N8        30.10S
MT. VERNON     MOCLDY    60  49  66 NE8       30.07R
CENTRALIA*     MOCLDY    58  51  76 N3        30.07R
SALEM*         CLEAR     58  49  72 N6        30.08R
$$

ILZ067-068-072-073-078-083-087-091-290100-
SOUTHEAST ILLINOIS

CITY           SKY/WX    TMP DP  RH WIND       PRES   REMARKS
LAWRENCEVILLE  CLOUDY    60  53  77 NE5       30.08R
FLORA*         MOCLDY    61  49  65 NE7       30.07R
FAIRFIELD*     CLOUDY    60  50  70 NE3       30.06R
HARRISBURG*    CLEAR     58  53  81 CALM      30.06S
ROBINSON*      CLOUDY    57  49  74 N10       30.10R
CARMI*         CLOUDY    60  52  74 CALM      30.06R
$$

ABBREVIATIONS USED IN REMARKS
   TC - TEMPERATURE IN CELSIUS
  WCI - WIND CHILL INDEX
   HX - HEAT INDEX
  VSB - VISIBILITY
$$





USA.gov is the U.S. government's official web portal to all federal, state and local government web resources and services.